Погода в Житомире

Хотите узнать прогноз погоды в Житомире? Тогда Вам сюда: Погода в Житомире

Поиск расширенной информации на нашем сайте:

Полезная информация:

Новости сайта



02.01.2020
Опубликован Долгосрочный прогноз погоды по городам России и ближнего зарубежья на январь 2020 года.
Карты: Прогноз на январь и февраль 2020 года, Сравнение прогнозируемой аномалии приземной температуры воздуха на январь 2020 года по разным моделям.




Погода в Житомире - сегодня

Время (UTC), дата Ветер
(°,м/с) 
Видим.   Явления Облачность Т
(°С)
Тd
(°С)
f(%) Тe
(°С)
Pmin
(гПа)
dP
(гПа)
Po
(мм)
O2
(г/м3)
Тmin Tmax R s Состояние
почвы
06 16.01.21 330 (СЗ) 10 км  {ливн. осадки}  10/0 верхняя 
[Cs]
-16.6 -19.4 79 -17  1015.8  1.3  740  319  -16.6    0.5  равномерный
сухой снег
100% 
09 16.01.21 280 (З) 10 км  {снег}  6/3 300 м верхняя 
[St|Cs]
-14.9 -18.5 74 -17  1017.1  1.4  741  317           
12 16.01.21 310 (СЗ) 10 км  {снег}  8/5 800 м верхняя 
[Sc|Cs]
-14.5 -19.8 64 -17  1015.9  -1.1  740  316      0.0     
15 16.01.21 тихо ()   10 км    ясно 
-15.5 -19.6 71 -16  1016.5  0.5  741  318           
18 16.01.21 350 (С) 10 км    ясно 
-16.3 -18.5 83 -16  1017.4  0.8  741  319    -13.5  0.0     
21 16.01.21 350 (С) 10 км    ясно 
-17.8 -19.7 85 -18  1017.5  -0.1  741  321           
00 17.01.21 тихо ()   4000 м  дымка  ясно 
-18.6 -19.8 90 -19  1017.4  -0.2  741  322           
03 17.01.21 тихо ()   4000 м  дымка  10/4 600 м средняя 
[Sc|Ac und]
-17.5 -18.6 91 -18  1017  -0.3  741  320           
06 17.01.21 тихо ()   4000 м  слаб. ливневой снег  10/10 660 м кучево-дожд. 
[Cb cap]
-14.6 -15.7 91 -15  1016.2  -0.4  740  317  -18.7    0.0  равномерный
сухой снег
100% 
09 17.01.21 тихо ()   4000 м  слаб. ливневой снег  10/8 630 м кучево-дожд., средняя 
[Cb cap|Ac As]
-12.6 -14.7 84 -13  1016.5  0.5  741  314           
12 17.01.21 350 (С) 4000 м  слаб. ливневой снег  10/6 700 м кучево-дожд., средняя 
[Cb cap|As trans]
-12.2 -15.6 76 -12  1015.8  -0.6  740  314      0.2     
15 17.01.21 350 (С) 4000 м  слаб. снег{ливн. осадки}  10/8 330 м средняя 
[Frnb|As op]
-13.1 -14.5 89 -13  1016.7  0.7  741  315           
18 17.01.21 340 (С) 2000 м  снег{ливн. осадки}  10/8 330 м средняя 
[Frnb|As op]
-13.4 -14.7 90 -13  1017.2  0.5  741  315    -11.6     
21 17.01.21 050 (СВ) 2000 м  снег  10/8 330 м средняя 
[Frnb|As op]
-14.6 -15.9 90 -15  1018.1  0.7  742  317           
00 18.01.21 тихо ()   2000 м  снег  10/9 330 м средняя 
[Frnb|As op]
-15.9 -17 91 -16  1018.6  0.4  742  319         
03 18.01.21 тихо ()   4000 м  слаб. снег  10/8 360 м средняя 
[Frnb|As op]
-16.3 -17.7 89 -16  1019.1  0.4  742  320           
06 18.01.21 360 (С) 4000 м  в посл. час снег  10/0 средняя, верхняя 
[Ac trans|Cs]
-18.6 -19.6 92 -19  1020.2  0.8  743  323  -18.6    10  равномерный
сухой снег
100% 
09 18.01.21 350 (С) 10 км    4/3 600 м средняя, верхняя 
[Sc|Ac trans|Cc]
-15.8 -18.6 79 -16  1021.2  1.3  744  320           
15 18.01.21 тихо ()   10 км    6/0 средняя 
[Ac trans]
-16 -19.6 74 -16  1021.2  0.7  744  320           
18 18.01.21 290 (З) 4000 м  слаб. снег  8/0 средняя 
[As op]
-16.8 -18.4 87 -17  1021.7  0.4  744  321    -14.5  0.0     
21 18.01.21 290 (З) 4000 м  слаб. снег  10/5 360 м средняя 
[Frnb|As op]
-16.2 -17.5 90 -16  1022.5  0.8  745  321           
00 19.01.21 320 (СЗ) 4000 м  слаб. снег  10/6 330 м средняя 
[Frnb|As op]
-16 -17.7 87 -16  1021.9  -0.5  745  320      0.4     
03 19.01.21 тихо ()   4000 м  дымка{снег}  ясно 
-18.2 -19.4 90 -18  1022.4  0.2  745  323           
06 19.01.21 350 (С) 4000 м  дымка{снег}  8/0 средняя, верхняя 
[Ac trans|Cc]
-19.1 -20.2 91 -19  1022.6  0.1  745  324  -19.2    0.4  равномерный
сухой снег
100% 
09 19.01.21 280 (З) 10 км    3/0 верхняя 
[Cs]
-16.1 -18 85 -16  1022.8  0.5  745  321           
Время (UTC), дата Ветер
(°,м/с) 
Видим.   Явления Облачность Т
(°С)
Тd
(°С)
f(%) Тe
(°С)
Pmin
(гПа)
dP
(гПа)
Po
(мм)
O2
(г/м3)
Тmin Tmax R s Состояние
почвы

Для получения пояснительной информации подведите курсор к названию столбца.

ПОГОДА в Житомире - архив

Всё, что Вы хотите узнать о погоде в Житомире - удобно и подробно!

Выберите нужную дату (начиная с 1 января 2019* года) и нажмите кнопку "Найти".
Будут отображены архивные сводки погоды по пункту Житомир, начиная с указанной даты.


Отображать данные в формате CSV (для использования в таблицах Excel)


Внимание! Наш архив погоды предназначен исключительно для личного некоммерческого использования в познавательных целях. Если Вам необходимы официальные справки о состоянии погоды (для производственных, юридических, коммерческих и т.п. целей), обращайтесь в органы Росгидромета.

*Примечание: данная дата относится к архиву по метеостанциям СССР (Россия, СНГ, Балтия).
Архив по метеостанциям Зарубежной Европы и Азии (кроме Китая) хранится 10 дней, по другим регионам земного шара (Китай, Африка, Америка, Австралия, Океания) - 1 день.

Житомир - район местоположения метеостанции


Название, широта, долгота, высота метеостанции:
Житомир 50.2°ш. 28.7°д. 224 м над ур. моря [Украина]

Дополнительная информация

В oтличие oт бoльшинства пoгoдных сайтoв мы публикуем пoдрoбную метеoинфoрмацию в детальнoм прoфессиoнальнoм фoрмате.

Характеристики температуры и влажнoсти вoздуха измеряются на высoте 2 м в тени вдали oт зданий и деревьев.
Скoрoсть ветра измеряется на высoте 10 м (на урoвне рoста челoвека скoрoсть ветра ниже в 1.5-2 раза). Если метеoстанция нахoдится в гoрoде или в лесу, тo скoрoсть ветра занижена на 2-4 м/с пo сравнению с oткрытым местoм. Скoрoсть ветра над акватoриями крупных рек и oзёр, а также на вершинах хoлмoв на 2-5 м/с выше, чем в oбычных услoвиях.
Атмoсфернoе давление в разных тoчках местнoсти мoжет значительнo oтличаться oт давления на метеoстанции, в зависимoсти oт услoвий рельефа (при пoдъёме на 10 м давление пoнижается примернo на 1 мм рт.ст.).